Location: Newark
(35.5300°N, 14.3000°E)
Time: 11:40:47
(UTC+00:00)

Transit 4A - Pass Details

Date: 02 December 2019
Orbit: 871 x 973 km, 66.8° (Epoch: 17 January)

Event Time Altitude Azimuth Distance (km) Brightness Sun altitude
Exits shadow 02:14:05 17° 96° (E) 2,081 10.2 -44.2°
Drops below altitude 10° 02:15:41 10° 108° (ESE) 2,514 10.7 -43.8°
Sets 02:18:34 0° 121° (ESE) 3,450 11.5 -43.2°
